CBF1210 ZYTX-ZSSS

Flight info

Callsign CBF1210
Flight time 2h 13m
Altitude 36100
Route TOS71D TOSID A588 UDETI W106 MAKNO W5 TAO W174 XDX DCT MABEB DCT GURIL DCT RUXEL W178 OSIKI/K0846S1130 W166 ZJ W167 SASAN
Aircraft A321/M-SDE3FGHIRWY/LB1

Departure

Time 2026-04-23 05:27
Airport Shenyang Taoxian International Airport (ZYTX)

Arrival

Time 2026-04-23 07:40
Airport Shanghai Hongqiao International Airport (ZSSS)
Time Latitude Longitude Altitude Speed Heading
2026-04-23 05:06 41.63186 123.48402 206 ft 0 kts 18°
2026-04-23 05:11 41.63185 123.48402 206 ft 1 kts 18°
2026-04-23 05:12 41.63170 123.48395 206 ft 2 kts 18°
2026-04-23 05:12 41.63157 123.48389 206 ft 2 kts 18°
2026-04-23 05:12 41.63142 123.48383 206 ft 2 kts 18°
2026-04-23 05:12 41.63128 123.48377 206 ft 2 kts 18°
2026-04-23 05:13 41.63113 123.48370 206 ft 2 kts 18°
2026-04-23 05:13 41.63104 123.48366 206 ft 2 kts 18°
2026-04-23 05:13 41.63090 123.48362 206 ft 2 kts
2026-04-23 05:14 41.63061 123.48366 206 ft 2 kts 341°
2026-04-23 05:14 41.63047 123.48374 206 ft 2 kts 329°
2026-04-23 05:14 41.63038 123.48382 206 ft 0 kts 321°
2026-04-23 05:14 41.63034 123.48387 206 ft 0 kts 319°
2026-04-23 05:16 41.63051 123.48367 206 ft 7 kts 318°
2026-04-23 05:16 41.63099 123.48247 206 ft 23 kts 277°
2026-04-23 05:16 41.63185 123.48066 206 ft 23 kts 317°
2026-04-23 05:17 41.63297 123.47983 206 ft 16 kts 15°
2026-04-23 05:17 41.63374 123.48077 206 ft 15 kts 53°
2026-04-23 05:17 41.63428 123.48198 206 ft 15 kts 77°
2026-04-23 05:17 41.63450 123.48345 206 ft 17 kts 66°
2026-04-23 05:18 41.63540 123.48494 206 ft 24 kts 48°
2026-04-23 05:18 41.63650 123.48660 206 ft 23 kts 48°
2026-04-23 05:18 41.63673 123.48695 206 ft 6 kts 45°
2026-04-23 05:18 41.63680 123.48705 206 ft 0 kts 47°
2026-04-23 05:19 41.63681 123.48705 206 ft 0 kts 47°
2026-04-23 05:19 41.63692 123.48722 206 ft 11 kts 47°
2026-04-23 05:20 41.63768 123.48835 206 ft 19 kts 49°
2026-04-23 05:20 41.63865 123.48988 206 ft 24 kts 49°
2026-04-23 05:20 41.63972 123.49150 206 ft 19 kts 46°
2026-04-23 05:20 41.64079 123.49254 206 ft 19 kts
2026-04-23 05:21 41.64187 123.49167 206 ft 18 kts 317°
2026-04-23 05:21 41.64264 123.49129 206 ft 8 kts 42°
2026-04-23 05:21 41.64323 123.49198 206 ft 14 kts 44°
2026-04-23 05:21 41.64402 123.49315 206 ft 19 kts 48°
2026-04-23 05:22 41.64488 123.49446 206 ft 18 kts 48°
2026-04-23 05:22 41.64548 123.49537 206 ft 11 kts 44°
2026-04-23 05:22 41.64617 123.49538 206 ft 11 kts 319°
2026-04-23 05:22 41.64632 123.49522 206 ft 0 kts 319°
2026-04-23 05:25 41.64638 123.49516 206 ft 5 kts 319°
2026-04-23 05:25 41.64686 123.49451 206 ft 10 kts 296°
2026-04-23 05:25 41.64669 123.49358 206 ft 10 kts 231°
2026-04-23 05:26 41.64666 123.49353 206 ft 0 kts 230°
2026-04-23 05:26 41.64665 123.49352 206 ft 0 kts 230°
2026-04-23 05:26 41.64534 123.49153 206 ft 69 kts 228°
2026-04-23 05:26 41.64033 123.48397 206 ft 146 kts 228°
2026-04-23 05:27 41.63211 123.47166 341 ft 197 kts 227°
2026-04-23 05:27 41.62291 123.45772 1045 ft 205 kts 227°
2026-04-23 05:27 41.61398 123.44402 1851 ft 194 kts 227°
2026-04-23 05:27 41.60519 123.43039 2387 ft 198 kts 227°
2026-04-23 05:28 41.59581 123.41600 2670 ft 217 kts 227°
2026-04-23 05:28 41.58555 123.40033 3022 ft 234 kts 227°
2026-04-23 05:28 41.57426 123.38354 3387 ft 250 kts 222°
2026-04-23 05:28 41.55904 123.37214 3885 ft 259 kts 192°
2026-04-23 05:29 41.54115 123.37067 4637 ft 259 kts 180°
2026-04-23 05:29 41.52303 123.37099 5271 ft 264 kts 180°
2026-04-23 05:29 41.50457 123.37128 5928 ft 267 kts 180°
2026-04-23 05:29 41.48588 123.37144 6589 ft 270 kts 181°
2026-04-23 05:30 41.46718 123.37152 7228 ft 273 kts 181°
2026-04-23 05:30 41.44796 123.37153 7862 ft 277 kts 182°
2026-04-23 05:30 41.42880 123.37149 8463 ft 281 kts 182°
2026-04-23 05:30 41.40904 123.37150 9054 ft 285 kts 180°
2026-04-23 05:31 41.38928 123.37521 9618 ft 292 kts 166°
2026-04-23 05:31 41.37050 123.38500 10182 ft 297 kts 156°
2026-04-23 05:31 41.35154 123.39773 10522 ft 310 kts 154°
2026-04-23 05:31 41.33189 123.41141 10796 ft 325 kts 154°
2026-04-23 05:32 41.31165 123.42548 11057 ft 339 kts 154°
2026-04-23 05:32 41.29021 123.44027 11312 ft 353 kts 154°
2026-04-23 05:32 41.26789 123.45555 11562 ft 367 kts 154°
2026-04-23 05:32 41.24485 123.47127 11805 ft 380 kts 154°
2026-04-23 05:33 41.22085 123.48762 12052 ft 393 kts 154°
2026-04-23 05:33 41.19619 123.50439 12433 ft 400 kts 154°
2026-04-23 05:33 41.17139 123.52123 12952 ft 404 kts 154°
2026-04-23 05:33 41.14631 123.53824 13485 ft 407 kts 154°
2026-04-23 05:34 41.12095 123.55543 13973 ft 411 kts 154°
2026-04-23 05:34 41.09544 123.57269 14432 ft 415 kts 154°
2026-04-23 05:34 41.06972 123.59008 14888 ft 419 kts 153°
2026-04-23 05:34 41.04385 123.60758 15353 ft 422 kts 153°
2026-04-23 05:35 41.01743 123.62545 15810 ft 426 kts 153°
2026-04-23 05:35 40.99115 123.64320 16264 ft 429 kts 153°
2026-04-23 05:35 40.96427 123.66138 16700 ft 432 kts 154°
2026-04-23 05:35 40.93772 123.67938 17104 ft 436 kts 154°
2026-04-23 05:36 40.90968 123.69524 17484 ft 438 kts 166°
2026-04-23 05:36 40.87985 123.69878 17900 ft 435 kts 187°
2026-04-23 05:36 40.85052 123.68896 18352 ft 430 kts 206°
2026-04-23 05:36 40.82423 123.67078 18804 ft 430 kts 212°
2026-04-23 05:37 40.79781 123.65202 19174 ft 434 kts 209°
2026-04-23 05:37 40.77009 123.63605 19558 ft 439 kts 204°
2026-04-23 05:37 40.74133 123.62317 19949 ft 443 kts 199°
2026-04-23 05:37 40.71127 123.61206 20353 ft 445 kts 198°
2026-04-23 05:38 40.68141 123.60147 20726 ft 448 kts 198°
2026-04-23 05:38 40.65128 123.59087 21070 ft 450 kts 198°
2026-04-23 05:38 40.62123 123.58019 21424 ft 452 kts 199°
2026-04-23 05:38 40.59129 123.56724 21778 ft 452 kts 204°
2026-04-23 05:39 40.56222 123.55114 22122 ft 452 kts 208°
2026-04-23 05:39 40.53457 123.53235 22452 ft 453 kts 212°
2026-04-23 05:39 40.50668 123.51203 22775 ft 455 kts 213°
2026-04-23 05:39 40.47939 123.49195 23100 ft 457 kts 213°
2026-04-23 05:40 40.45172 123.47162 23439 ft 458 kts 213°
2026-04-23 05:40 40.42377 123.45115 23740 ft 460 kts 212°
2026-04-23 05:40 40.39587 123.43079 24027 ft 462 kts 212°
2026-04-23 05:40 40.36787 123.41041 24345 ft 463 kts 212°
2026-04-23 05:41 40.33934 123.38969 24654 ft 465 kts 213°
2026-04-23 05:41 40.31125 123.36932 24921 ft 466 kts 212°
2026-04-23 05:41 40.28268 123.34859 25263 ft 467 kts 212°
2026-04-23 05:41 40.25455 123.32814 25671 ft 465 kts 212°
2026-04-23 05:42 40.22650 123.30770 26079 ft 463 kts 212°
2026-04-23 05:42 40.19839 123.28728 26493 ft 461 kts 212°
2026-04-23 05:42 40.17039 123.26703 26905 ft 459 kts 212°
2026-04-23 05:42 40.14256 123.24695 27310 ft 457 kts 212°
2026-04-23 05:43 40.11458 123.22678 27717 ft 455 kts 212°
2026-04-23 05:43 40.08720 123.20709 28118 ft 453 kts 212°
2026-04-23 05:43 40.05965 123.18731 28526 ft 450 kts 212°
2026-04-23 05:43 40.03250 123.16773 28889 ft 449 kts 212°
2026-04-23 05:44 40.00542 123.14797 29238 ft 447 kts 213°
2026-04-23 05:44 39.97801 123.12796 29614 ft 445 kts 213°
2026-04-23 05:44 39.95114 123.10835 29951 ft 439 kts 213°
2026-04-23 05:45 39.89819 123.06982 30116 ft 442 kts 213°
2026-04-23 05:45 39.87141 123.05042 30381 ft 442 kts 213°
2026-04-23 05:45 39.84470 123.03117 30710 ft 439 kts 213°
2026-04-23 05:45 39.81843 123.01224 31067 ft 436 kts 213°
2026-04-23 05:46 39.79195 122.99314 31355 ft 434 kts 213°
2026-04-23 05:46 39.76560 122.97414 31641 ft 432 kts 213°
2026-04-23 05:46 39.73958 122.95538 31943 ft 430 kts 213°
2026-04-23 05:46 39.71323 122.93639 32189 ft 429 kts 213°
2026-04-23 05:47 39.68740 122.91775 32455 ft 427 kts 213°
2026-04-23 05:47 39.66156 122.89914 32698 ft 426 kts 213°
2026-04-23 05:47 39.63578 122.88058 32898 ft 425 kts 213°
2026-04-23 05:47 39.60995 122.86203 33136 ft 424 kts 213°
2026-04-23 05:48 39.58402 122.84338 33361 ft 423 kts 213°
2026-04-23 05:48 39.55862 122.82513 33561 ft 422 kts 213°
2026-04-23 05:48 39.53273 122.80655 33737 ft 422 kts 213°
2026-04-23 05:48 39.50725 122.78830 33947 ft 420 kts 213°
2026-04-23 05:49 39.48195 122.77017 34170 ft 419 kts 213°
2026-04-23 05:49 39.45649 122.75195 34336 ft 419 kts 213°
2026-04-23 05:49 39.43083 122.73360 34446 ft 420 kts 213°
2026-04-23 05:49 39.40545 122.71548 34566 ft 420 kts 213°
2026-04-23 05:50 39.37973 122.69711 34676 ft 420 kts 213°
2026-04-23 05:50 39.35444 122.67910 34810 ft 419 kts 213°
2026-04-23 05:50 39.32870 122.66075 34925 ft 419 kts 213°
2026-04-23 05:50 39.30317 122.64258 35026 ft 420 kts 213°
2026-04-23 05:51 39.27764 122.62441 35116 ft 419 kts 214°
2026-04-23 05:51 39.25269 122.60534 35230 ft 417 kts 216°
2026-04-23 05:51 39.22842 122.58587 35368 ft 416 kts 216°
2026-04-23 05:52 39.17918 122.54652 35524 ft 416 kts 216°
2026-04-23 05:52 39.15464 122.52692 35629 ft 416 kts 217°
2026-04-23 05:52 39.13009 122.50733 35698 ft 416 kts 217°
2026-04-23 05:53 39.08079 122.46800 35812 ft 417 kts 217°
2026-04-23 05:53 39.03182 122.42902 35917 ft 417 kts 217°
2026-04-23 05:54 38.98251 122.38982 36006 ft 417 kts 217°
2026-04-23 05:54 38.93303 122.35055 36071 ft 416 kts 216°
2026-04-23 05:55 38.88387 122.31146 36083 ft 416 kts 216°
2026-04-23 05:55 38.83465 122.27262 36086 ft 416 kts 216°
2026-04-23 05:56 38.78563 122.23394 36088 ft 416 kts 216°
2026-04-23 05:56 38.73919 122.19035 36068 ft 410 kts 226°
2026-04-23 05:57 38.70199 122.13616 36082 ft 407 kts 237°
2026-04-23 05:57 38.67481 122.07322 36093 ft 406 kts 248°
2026-04-23 05:58 38.65736 122.00475 36084 ft 406 kts 254°
2026-04-23 05:58 38.64187 121.93550 36087 ft 407 kts 254°
2026-04-23 05:59 38.62639 121.86620 36082 ft 407 kts 254°
2026-04-23 05:59 38.61087 121.79690 36091 ft 407 kts 254°
2026-04-23 06:00 38.59522 121.72714 36067 ft 408 kts 254°
2026-04-23 06:00 38.57952 121.65743 36077 ft 409 kts 254°
2026-04-23 06:01 38.56380 121.58786 36080 ft 410 kts 254°
2026-04-23 06:01 38.54805 121.51836 36081 ft 411 kts 254°
2026-04-23 06:02 38.53217 121.44846 36090 ft 411 kts 254°
2026-04-23 06:02 38.51621 121.37839 36090 ft 411 kts 254°
2026-04-23 06:03 38.50025 121.30852 36097 ft 410 kts 253°
2026-04-23 06:03 38.48435 121.23917 36096 ft 411 kts 253°
2026-04-23 06:04 38.46503 121.17043 36082 ft 411 kts 248°
2026-04-23 06:04 38.44048 121.10495 36088 ft 413 kts 243°
2026-04-23 06:05 38.41111 121.04247 36088 ft 414 kts 239°
2026-04-23 06:05 38.38053 120.98029 36089 ft 414 kts 239°
2026-04-23 06:06 38.34990 120.91826 36081 ft 414 kts 239°
2026-04-23 06:06 38.31935 120.85653 36087 ft 415 kts 239°
2026-04-23 06:07 38.28761 120.79545 36089 ft 416 kts 235°
2026-04-23 06:07 38.24906 120.74040 36077 ft 419 kts 226°
2026-04-23 06:08 38.20354 120.69367 36081 ft 424 kts 218°
2026-04-23 06:08 38.15202 120.65635 36090 ft 428 kts 211°
2026-04-23 06:09 38.09867 120.62302 36083 ft 428 kts 209°
2026-04-23 06:09 38.04319 120.59509 36079 ft 432 kts 202°
2026-04-23 06:10 37.98481 120.57564 36082 ft 435 kts 196°
2026-04-23 06:10 37.92489 120.56530 36087 ft 440 kts 189°
2026-04-23 06:11 37.86371 120.56061 36088 ft 440 kts 189°
2026-04-23 06:11 37.80238 120.55605 36087 ft 440 kts 189°
2026-04-23 06:12 37.74169 120.55148 36086 ft 440 kts 189°
2026-04-23 06:12 37.65035 120.54404 36087 ft 437 kts 191°
2026-04-23 06:13 37.58989 120.53513 36092 ft 436 kts 192°
2026-04-23 06:13 37.53011 120.52621 36098 ft 435 kts 192°
2026-04-23 06:14 37.46991 120.51722 36106 ft 435 kts 193°
2026-04-23 06:14 37.40980 120.50825 36105 ft 435 kts 193°
2026-04-23 06:15 37.35001 120.49935 36098 ft 435 kts 193°
2026-04-23 06:15 37.28984 120.49037 36092 ft 434 kts 193°
2026-04-23 06:16 37.22991 120.48147 36088 ft 433 kts 193°
2026-04-23 06:16 37.16991 120.47257 36086 ft 433 kts 193°
2026-04-23 06:17 37.11037 120.46375 36084 ft 432 kts 193°
2026-04-23 06:17 37.05045 120.45489 36081 ft 432 kts 193°
2026-04-23 06:18 36.99101 120.44611 36084 ft 432 kts 193°
2026-04-23 06:18 36.93102 120.43727 36084 ft 432 kts 193°
2026-04-23 06:19 36.87136 120.42853 36079 ft 432 kts 193°
2026-04-23 06:19 36.81156 120.41980 36075 ft 431 kts 193°
2026-04-23 06:20 36.75222 120.41112 36082 ft 430 kts 193°
2026-04-23 06:20 36.69290 120.40243 36083 ft 430 kts 193°
2026-04-23 06:21 36.63353 120.39375 36079 ft 429 kts 193°
2026-04-23 06:21 36.57427 120.38509 36082 ft 429 kts 193°
2026-04-23 06:22 36.51477 120.37837 36085 ft 432 kts 189°
2026-04-23 06:22 36.45435 120.37608 36082 ft 432 kts 189°
2026-04-23 06:23 36.39428 120.37382 36083 ft 432 kts 189°
2026-04-23 06:23 36.33440 120.37161 36081 ft 431 kts 189°
2026-04-23 06:24 36.27522 120.36506 36081 ft 426 kts 195°
2026-04-23 06:24 36.21715 120.35148 36083 ft 423 kts 199°
2026-04-23 06:25 36.15992 120.33653 36077 ft 422 kts 198°
2026-04-23 06:25 36.10239 120.32158 36086 ft 423 kts 198°
2026-04-23 06:26 36.04530 120.30514 36079 ft 418 kts 203°
2026-04-23 06:26 35.99127 120.28007 36083 ft 412 kts 211°
2026-04-23 06:27 35.94146 120.24642 36091 ft 406 kts 218°
2026-04-23 06:27 35.89638 120.20512 36097 ft 402 kts 224°
2026-04-23 06:28 35.85344 120.16178 36092 ft 401 kts 224°
2026-04-23 06:28 35.81032 120.11807 36085 ft 402 kts 224°
2026-04-23 06:29 35.76709 120.07419 36078 ft 401 kts 224°
2026-04-23 06:29 35.72401 120.03043 36080 ft 401 kts 224°
2026-04-23 06:30 35.68106 119.98684 36087 ft 401 kts 224°
2026-04-23 06:30 35.63828 119.94346 36090 ft 401 kts 224°
2026-04-23 06:31 35.59524 119.89987 36092 ft 400 kts 224°
2026-04-23 06:31 35.55228 119.85641 36093 ft 400 kts 224°
2026-04-23 06:32 35.50925 119.81300 36096 ft 399 kts 224°
2026-04-23 06:32 35.46645 119.76987 36095 ft 399 kts 224°
2026-04-23 06:33 35.42395 119.72688 36087 ft 399 kts 225°
2026-04-23 06:33 35.38124 119.68311 36089 ft 399 kts 225°
2026-04-23 06:34 35.33886 119.63975 36092 ft 398 kts 225°
2026-04-23 06:34 35.29643 119.59641 36091 ft 398 kts 225°
2026-04-23 06:35 35.25395 119.55311 36095 ft 398 kts 225°
2026-04-23 06:35 35.21143 119.50981 36093 ft 398 kts 225°
2026-04-23 06:36 35.16869 119.46638 36094 ft 398 kts 225°
2026-04-23 06:36 35.12630 119.42337 36095 ft 397 kts 225°
2026-04-23 06:37 35.08370 119.38020 36094 ft 397 kts 225°
2026-04-23 06:37 35.04114 119.33707 36097 ft 398 kts 224°
2026-04-23 06:38 34.99872 119.29399 36096 ft 397 kts 225°
2026-04-23 06:38 34.95631 119.25106 36096 ft 397 kts 225°
2026-04-23 06:39 34.91403 119.20840 36095 ft 396 kts 225°
2026-04-23 06:39 34.87122 119.16548 36094 ft 397 kts 224°
2026-04-23 06:40 34.82864 119.12292 36090 ft 397 kts 225°
2026-04-23 06:40 34.78597 119.08020 36095 ft 396 kts 225°
2026-04-23 06:41 34.74361 119.03778 36095 ft 396 kts 225°
2026-04-23 06:41 34.70124 118.99539 36099 ft 395 kts 225°
2026-04-23 06:42 34.65870 118.95347 36088 ft 397 kts 222°
2026-04-23 06:42 34.61160 118.91730 36090 ft 403 kts 215°
2026-04-23 06:43 34.55999 118.89010 36096 ft 410 kts 207°
2026-04-23 06:43 34.50401 118.87266 36100 ft 421 kts 199°
2026-04-23 06:44 34.44577 118.86253 36096 ft 422 kts 197°
2026-04-23 06:44 34.38766 118.85303 36100 ft 421 kts 197°
2026-04-23 06:45 34.32986 118.84364 36102 ft 420 kts 197°
2026-04-23 06:45 34.27176 118.83420 36104 ft 419 kts 197°
2026-04-23 06:46 34.21398 118.82484 36101 ft 418 kts 197°
2026-04-23 06:46 34.15664 118.81557 36103 ft 418 kts 197°
2026-04-23 06:47 34.09882 118.80621 36104 ft 418 kts 197°
2026-04-23 06:47 34.04124 118.79699 36110 ft 417 kts 198°
2026-04-23 06:48 33.98376 118.78780 36108 ft 416 kts 198°
2026-04-23 06:48 33.92645 118.77870 36116 ft 417 kts 198°
2026-04-23 06:49 33.86911 118.76960 36111 ft 415 kts 197°
2026-04-23 06:49 33.81168 118.76049 36117 ft 416 kts 198°
2026-04-23 06:50 33.75459 118.75131 36118 ft 415 kts 198°
2026-04-23 06:50 33.69713 118.74209 36112 ft 416 kts 198°
2026-04-23 06:51 33.63974 118.73290 36118 ft 416 kts 198°
2026-04-23 06:51 33.58248 118.72375 36117 ft 416 kts 198°
2026-04-23 06:52 33.52522 118.71464 36112 ft 415 kts 198°
2026-04-23 06:52 33.46818 118.70555 36117 ft 415 kts 198°
2026-04-23 06:53 33.41091 118.69639 36114 ft 416 kts 198°
2026-04-23 06:53 33.35360 118.68720 36121 ft 415 kts 198°
2026-04-23 06:54 33.29622 118.67874 36109 ft 421 kts 194°
2026-04-23 06:54 33.23668 118.68189 36116 ft 438 kts 182°
2026-04-23 06:55 33.17656 118.70188 36108 ft 458 kts 169°
2026-04-23 06:55 33.14792 118.71828 36112 ft 469 kts 162°
2026-04-23 06:55 33.11979 118.73936 35982 ft 476 kts 156°
2026-04-23 06:56 33.06574 118.78455 36076 ft 474 kts 156°
2026-04-23 06:56 33.01194 118.82958 36109 ft 475 kts 156°
2026-04-23 06:57 32.95761 118.87465 36103 ft 476 kts 156°
2026-04-23 06:57 32.90292 118.91981 36109 ft 475 kts 156°
2026-04-23 06:58 32.84850 118.96452 36109 ft 477 kts 156°
2026-04-23 06:58 32.79380 119.00967 36117 ft 476 kts 156°
2026-04-23 06:59 32.73982 119.05441 36107 ft 474 kts 155°
2026-04-23 06:59 32.68560 119.09932 36110 ft 475 kts 156°
2026-04-23 07:00 32.63148 119.14410 36115 ft 475 kts 156°
2026-04-23 07:00 32.57732 119.18880 36102 ft 475 kts 155°
2026-04-23 07:01 32.52299 119.23361 36084 ft 478 kts 156°
2026-04-23 07:01 32.49585 119.25600 35785 ft 475 kts 155°
2026-04-23 07:01 32.46883 119.27825 35505 ft 473 kts 155°
2026-04-23 07:02 32.44210 119.30029 35277 ft 469 kts 155°
2026-04-23 07:02 32.41520 119.32243 35043 ft 467 kts 155°
2026-04-23 07:02 32.36180 119.36620 34721 ft 467 kts 155°
2026-04-23 07:03 32.33546 119.38783 34460 ft 465 kts 155°
2026-04-23 07:03 32.30889 119.40962 34202 ft 467 kts 155°
2026-04-23 07:03 32.28205 119.43160 33936 ft 467 kts 155°
2026-04-23 07:03 32.25525 119.45352 33666 ft 469 kts 155°
2026-04-23 07:04 32.22842 119.47546 33405 ft 467 kts 154°
2026-04-23 07:04 32.20182 119.49724 33137 ft 469 kts 154°
2026-04-23 07:04 32.17507 119.51910 32848 ft 469 kts 154°
2026-04-23 07:04 32.14819 119.54109 32391 ft 470 kts 154°
2026-04-23 07:05 32.12123 119.56308 31797 ft 472 kts 154°
2026-04-23 07:05 32.09449 119.58491 31086 ft 473 kts 154°
2026-04-23 07:05 32.06715 119.60719 30329 ft 476 kts 154°
2026-04-23 07:05 32.04018 119.62921 29540 ft 479 kts 154°
2026-04-23 07:06 32.01249 119.65173 28732 ft 482 kts 154°
2026-04-23 07:06 31.98521 119.67401 27967 ft 484 kts 153°
2026-04-23 07:06 31.95818 119.69848 27202 ft 491 kts 147°
2026-04-23 07:06 31.93391 119.72647 26445 ft 499 kts 139°
2026-04-23 07:07 31.91254 119.75810 25675 ft 506 kts 131°
2026-04-23 07:07 31.89241 119.79251 24871 ft 508 kts 129°
2026-04-23 07:07 31.87288 119.82699 24216 ft 504 kts 129°
2026-04-23 07:07 31.85379 119.86079 23735 ft 496 kts 129°
2026-04-23 07:08 31.83470 119.89437 23214 ft 491 kts 129°
2026-04-23 07:08 31.81568 119.92760 22680 ft 486 kts 129°
2026-04-23 07:08 31.79707 119.95998 22149 ft 482 kts 129°
2026-04-23 07:08 31.77840 119.99234 21586 ft 478 kts 129°
2026-04-23 07:09 31.75962 120.02486 21018 ft 475 kts 129°
2026-04-23 07:09 31.74128 120.05660 20463 ft 472 kts 128°
2026-04-23 07:09 31.72280 120.08856 19890 ft 470 kts 128°
2026-04-23 07:09 31.70454 120.12010 19327 ft 467 kts 128°
2026-04-23 07:10 31.68636 120.15152 18753 ft 464 kts 128°
2026-04-23 07:10 31.66846 120.18244 18188 ft 461 kts 127°
2026-04-23 07:10 31.65057 120.21336 17628 ft 458 kts 127°
2026-04-23 07:10 31.63281 120.24398 17099 ft 453 kts 127°
2026-04-23 07:11 31.61538 120.27399 16554 ft 439 kts 127°
2026-04-23 07:11 31.59881 120.30419 16094 ft 438 kts 122°
2026-04-23 07:11 31.58482 120.33582 15619 ft 435 kts 116°
2026-04-23 07:12 31.56388 120.40121 14669 ft 427 kts 110°
2026-04-23 07:12 31.55423 120.43431 14186 ft 423 kts 110°
2026-04-23 07:12 31.49589 120.63131 11288 ft 417 kts 108°
2026-04-23 07:12 31.48326 120.67310 10636 ft 409 kts 109°
2026-04-23 07:13 31.47419 120.70344 10137 ft 388 kts 108°
2026-04-23 07:13 31.46545 120.73265 9685 ft 366 kts 108°
2026-04-23 07:13 31.45732 120.75991 9556 ft 346 kts 108°
2026-04-23 07:13 31.44965 120.78554 9419 ft 320 kts 108°
2026-04-23 07:14 31.44259 120.80906 9283 ft 297 kts 108°
2026-04-23 07:14 31.43579 120.83170 9161 ft 294 kts 108°
2026-04-23 07:14 31.42906 120.85413 9044 ft 292 kts 108°
2026-04-23 07:14 31.42232 120.87661 8923 ft 291 kts 108°
2026-04-23 07:15 31.41556 120.89898 8797 ft 290 kts 107°
2026-04-23 07:15 31.40892 120.92093 8590 ft 289 kts 107°
2026-04-23 07:15 31.38766 120.99101 7883 ft 285 kts 107°
2026-04-23 07:15 31.38106 121.01276 7653 ft 282 kts 107°
2026-04-23 07:16 31.37448 121.03435 7427 ft 279 kts 107°
2026-04-23 07:16 31.36802 121.05553 7195 ft 277 kts 107°
2026-04-23 07:16 31.36161 121.07656 6964 ft 276 kts 107°
2026-04-23 07:16 31.35512 121.09784 6725 ft 274 kts 105°
2026-04-23 07:17 31.34878 121.11858 6492 ft 272 kts 107°
2026-04-23 07:17 31.34234 121.13940 6251 ft 272 kts 107°
2026-04-23 07:17 31.33591 121.16008 5994 ft 269 kts 105°
2026-04-23 07:17 31.32958 121.18044 5747 ft 268 kts 107°
2026-04-23 07:18 31.32261 121.20060 5476 ft 270 kts 117°
2026-04-23 07:18 31.30957 121.21635 5213 ft 276 kts 146°
2026-04-23 07:18 31.29124 121.22311 4923 ft 279 kts 173°
2026-04-23 07:18 31.27167 121.22419 4728 ft 281 kts 176°
2026-04-23 07:19 31.25208 121.22477 4599 ft 282 kts 176°
2026-04-23 07:19 31.23231 121.22551 4477 ft 282 kts 175°
2026-04-23 07:19 31.21266 121.22645 4351 ft 281 kts 175°
2026-04-23 07:19 31.19308 121.22749 4229 ft 280 kts 174°
2026-04-23 07:20 31.17375 121.22851 4112 ft 279 kts 174°
2026-04-23 07:20 31.15422 121.22958 3995 ft 279 kts 175°
2026-04-23 07:20 31.13464 121.23067 3856 ft 280 kts 175°
2026-04-23 07:20 31.11525 121.23174 3735 ft 275 kts 174°
2026-04-23 07:21 31.09640 121.23278 3589 ft 265 kts 174°
2026-04-23 07:21 31.07830 121.23377 3471 ft 255 kts 175°
2026-04-23 07:21 31.06068 121.23471 3356 ft 250 kts 173°
2026-04-23 07:21 31.04333 121.23569 3255 ft 253 kts 174°
2026-04-23 07:22 31.02585 121.23792 3084 ft 248 kts 157°
2026-04-23 07:22 31.01259 121.24908 2905 ft 230 kts 115°
2026-04-23 07:22 31.00910 121.26618 2815 ft 211 kts 79°
2026-04-23 07:22 31.01126 121.28275 2752 ft 206 kts 78°
2026-04-23 07:23 31.01301 121.29942 2619 ft 207 kts 80°
2026-04-23 07:23 31.01421 121.31593 2503 ft 203 kts 81°
2026-04-23 07:23 31.01511 121.33211 2257 ft 199 kts 81°
2026-04-23 07:23 31.01953 121.34696 1836 ft 192 kts 45°
2026-04-23 07:24 31.03075 121.35214 1781 ft 168 kts 358°
2026-04-23 07:24 31.04152 121.34950 1765 ft 150 kts 349°
2026-04-23 07:24 31.05168 121.34680 1784 ft 148 kts 352°
2026-04-23 07:24 31.06189 121.34486 1791 ft 148 kts 354°
2026-04-23 07:25 31.07207 121.34349 1798 ft 148 kts 357°
2026-04-23 07:25 31.08244 121.34253 1803 ft 148 kts 358°
2026-04-23 07:25 31.09283 121.34184 1813 ft 150 kts 359°
2026-04-23 07:25 31.10325 121.34127 1600 ft 148 kts 358°
2026-04-23 07:26 31.11348 121.34074 1402 ft 147 kts 359°
2026-04-23 07:26 31.12375 121.34022 1203 ft 147 kts 358°
2026-04-23 07:26 31.13396 121.33968 1004 ft 146 kts 359°
2026-04-23 07:26 31.14421 121.33907 806 ft 147 kts 356°
2026-04-23 07:27 31.15449 121.33836 623 ft 149 kts 359°
2026-04-23 07:27 31.16478 121.33800 411 ft 147 kts
2026-04-23 07:27 31.17495 121.33752 232 ft 146 kts 360°
2026-04-23 07:27 31.18508 121.33698 69 ft 146 kts
2026-04-23 07:28 31.19598 121.33669 501 ft 162 kts
2026-04-23 07:28 31.20678 121.33630 1481 ft 154 kts
2026-04-23 07:28 31.21672 121.33591 2198 ft 140 kts
2026-04-23 07:28 31.22622 121.33553 2705 ft 135 kts
2026-04-23 07:29 31.23592 121.33517 2980 ft 148 kts
2026-04-23 07:29 31.24732 121.33466 3024 ft 177 kts 358°
2026-04-23 07:29 31.25952 121.32783 2860 ft 222 kts 315°
2026-04-23 07:29 31.26552 121.31073 2918 ft 242 kts 275°
2026-04-23 07:30 31.26082 121.29155 2963 ft 251 kts 235°
2026-04-23 07:30 31.24813 121.27755 2998 ft 255 kts 218°
2026-04-23 07:30 31.23428 121.26447 2997 ft 256 kts 222°
2026-04-23 07:30 31.22147 121.25024 2995 ft 255 kts 227°
2026-04-23 07:31 31.20945 121.23470 2995 ft 255 kts 231°
2026-04-23 07:31 31.19813 121.21896 3001 ft 255 kts 232°
2026-04-23 07:31 31.18657 121.20297 2994 ft 255 kts 228°
2026-04-23 07:31 31.17202 121.19167 2974 ft 252 kts 192°
2026-04-23 07:32 31.15507 121.19194 3001 ft 246 kts 161°
2026-04-23 07:32 31.13883 121.19842 3004 ft 246 kts 155°
2026-04-23 07:32 31.12258 121.20534 3003 ft 247 kts 157°
2026-04-23 07:32 31.10625 121.21130 2996 ft 247 kts 160°
2026-04-23 07:33 31.08970 121.21643 2974 ft 245 kts 162°
2026-04-23 07:33 31.07295 121.22116 2695 ft 246 kts 163°
2026-04-23 07:33 31.05634 121.22566 2384 ft 247 kts 164°
2026-04-23 07:33 31.03957 121.23011 2111 ft 247 kts 164°
2026-04-23 07:34 31.02308 121.23575 1902 ft 241 kts 146°
2026-04-23 07:34 31.01243 121.24937 1986 ft 225 kts 105°
2026-04-23 07:34 31.01083 121.26623 2058 ft 206 kts 81°
2026-04-23 07:34 31.01219 121.28306 2087 ft 207 kts 80°
2026-04-23 07:35 31.01344 121.29987 2090 ft 208 kts 81°
2026-04-23 07:35 31.01442 121.31651 2098 ft 208 kts 82°
2026-04-23 07:35 31.01527 121.33319 2168 ft 196 kts 81°
2026-04-23 07:35 31.01962 121.34695 2078 ft 173 kts 42°
2026-04-23 07:36 31.02974 121.35078 2036 ft 151 kts 355°
2026-04-23 07:36 31.03995 121.34839 2079 ft 148 kts 350°
2026-04-23 07:36 31.05009 121.34606 2124 ft 147 kts 354°
2026-04-23 07:36 31.06031 121.34448 2125 ft 149 kts 356°
2026-04-23 07:37 31.07067 121.34334 2115 ft 148 kts 358°
2026-04-23 07:37 31.08092 121.34254 2019 ft 148 kts 359°
2026-04-23 07:37 31.09126 121.34191 1831 ft 147 kts 359°
2026-04-23 07:37 31.10155 121.34136 1631 ft 147 kts 359°
2026-04-23 07:38 31.11165 121.34084 1438 ft 146 kts 359°
2026-04-23 07:38 31.12181 121.34032 1239 ft 146 kts 358°
2026-04-23 07:38 31.13199 121.33978 1038 ft 146 kts 359°
2026-04-23 07:38 31.14218 121.33923 839 ft 146 kts
2026-04-23 07:39 31.15217 121.33860 618 ft 145 kts 360°
2026-04-23 07:39 31.16223 121.33820 430 ft 144 kts 359°
2026-04-23 07:39 31.17229 121.33766 282 ft 144 kts
2026-04-23 07:39 31.18231 121.33713 100 ft 142 kts 358°
2026-04-23 07:40 31.19165 121.33656 16 ft 125 kts 359°
2026-04-23 07:40 31.19883 121.33627 15 ft 78 kts 358°
2026-04-23 07:40 31.20251 121.33607 15 ft 29 kts 356°
2026-04-23 07:40 31.20311 121.33601 15 ft 0 kts 354°
2026-04-23 07:41 31.20356 121.33596 15 ft 13 kts 356°
2026-04-23 07:41 31.20453 121.33593 15 ft 13 kts 356°
2026-04-23 07:41 31.20547 121.33569 15 ft 14 kts 345°
2026-04-23 07:41 31.20639 121.33524 15 ft 14 kts 329°
2026-04-23 07:42 31.20721 121.33457 15 ft 12 kts 288°
2026-04-23 07:42 31.20661 121.33401 15 ft 12 kts 192°
2026-04-23 07:42 31.20571 121.33397 15 ft 13 kts 178°
2026-04-23 07:42 31.20524 121.33330 15 ft 12 kts 268°
2026-04-23 07:43 31.20517 121.33198 15 ft 20 kts 267°
2026-04-23 07:43 31.20509 121.33051 15 ft 6 kts 266°
2026-04-23 07:43 31.20504 121.32989 15 ft 12 kts 252°
2026-04-23 07:43 31.20377 121.32941 15 ft 22 kts 178°
2026-04-23 07:44 31.20217 121.32948 15 ft 23 kts 176°
2026-04-23 07:44 31.20061 121.32961 15 ft 16 kts 179°
2026-04-23 07:44 31.19947 121.32965 15 ft 16 kts 184°
2026-04-23 07:44 31.19835 121.32967 15 ft 16 kts 177°
2026-04-23 07:45 31.19731 121.32950 15 ft 12 kts 248°
2026-04-23 07:45 31.19725 121.32877 15 ft 9 kts 263°
2026-04-23 07:45 31.19717 121.32782 15 ft 12 kts 266°
2026-04-23 07:45 31.19712 121.32676 15 ft 3 kts 270°
2026-04-23 07:46 31.19720 121.32650 15 ft 3 kts 313°
2026-04-23 07:46 31.19750 121.32642 15 ft 6 kts 349°
2026-04-23 07:46 31.19795 121.32637 15 ft 0 kts 356°
2026-04-23 07:46 31.19798 121.32637 15 ft 2 kts 356°
2026-04-23 07:47 31.19806 121.32636 15 ft 0 kts 357°